Location: Karcze
(52.0945°N, 22.4786°E)
Time: 01:49:57
(UTC+00:00)

Cosmos 2233 Rocket - Pass Details

Date: 14 July 2020
Orbit: 954 x 990 km, 82.9° (Epoch: 06 August)

Event Time Altitude Azimuth Distance (km) Brightness Sun altitude
Exits shadow 00:55:02 - 184° (S) 2,822 5.9 -10.3°
Reaches altitude 10° 00:55:22 10° 184° (S) 2,702 5.8 -10.2°
Maximum altitude 01:01:34 82° 97° (E) 989 4.1 -9.7°
Drops below altitude 10° 01:07:52 10° 12° (NNE) 2,746 7.6 -9.2°
Sets 01:10:24 0° 11° (NNE) 3,702 8.4 -8.9°
